Back to catalog

STARLINK-34993

AliveCommunicationsSSO
NORAD 65389·PAYLOAD·🇺🇸 United States

Launched Aug 30, 2025 from Vandenberg Space Force Base

Loading…

Next Passes (next 24 hours)

TLE

FreshSource: CelesTrak SupGP

Epoch: Sep 14, 2026, 14:54 UTC

1 65389C 25191L   26257.62131944  .00028829  00000+0  89479-3 0  2576
2 65389  97.2842 123.7396 0002031  87.4078  85.8028 15.33428554    18

Track STARLINK-34993 in real time with AllMySat

Download on the App Store